FENGYUN 1C DEB

Satellite information

Favourite Embed

Satellite Type and Status

DEBRISIN ORBIT

Key statistics

Satellite FENGYUN 1C DEB at a glance.

Uptime

9659

Days in orbit

Revolutions

≈ 14.6

Per day

Orbit

SSO

Sun Synchronous Orbit

Inclination

98.6

Latest

Satellite identification and parameters

Extended collection of information and parameters for FENGYUN 1C DEB.

Object identification

Identified? True

Debris? True

Object name: FENGYUN 1C DEB

International designator: 1999-025DJT

Object number (NORAD): 35091

Object ID (CCSDS): 35091

Country: PEOPLES REPUBLIC OF CHINA (PRC)

Current information (Y/N): Y

RCS size: SMALL

Orbital parameters

Period: 98.659 minutes

Inclination: 98.5958 deg

SMA: 7072.693 km

Apoapsis: 730.417 km

Periapsis: 658.699 km

RAAN: 33.457 deg

Eccentricy: 0.00507005

Argument of periapsis: 106.4468 deg

Mean anomaly: 254.2311 deg

Mean motion: 14.59572223 rev/day

Mean motion (dot): 0.00019559 rev/day2

B* drag term: 0.0040411744 1/REarth

Two-line elements (TLE)

Creation date: Oct. 18, 2025, 10:30 a.m.

Reference frame: TEME

Reference center: EARTH

Epoch: Oct. 18, 2025, 5:48 a.m. UTC

TLE line 0: 0 FENGYUN 1C DEB

TLE line 1: 1 35091U 99025DJT 25291.24224866 .00019559 00000-0 40412-2 0 9998

TLE line 2: 2 35091 98.5958 33.4570 0050701 106.4468 254.2311 14.59572223891172

Live tracking on map

Real-time ground track for satellite FENGYUN 1C DEB.

In-orbit conjunctions

A list of the most updated potential collisions computed for object FENGYUN 1C DEB.

Target Orbit TCA Probability of collision Miss distance Type
CHUANG XIN 1 (CZ-1) SSO 2025-06-29 20:37:37 0.0001073317 824.0 (m) PAYLOAD
CZ-6A DEB LEO 2025-02-20 02:26:00 0.0001140587 254.0 (m) DEBRIS
CZ-6A DEB LEO 2024-11-11 04:10:49 0.0003629792 141.0 (m) DEBRIS

Associated space launch

Chinese polar orbiting meteorological satellite

FENGYUN 1C DEB was lifted into orbit during the mission ‘Long March 4B | Feng Yun 1C’, on board a Long March 4B space rocket.

The launch took place on May 10, 1999, 1:33 a.m. from Launch Complex 7.

For more information about the launch, click the button.

Launch to space Long March 4B | Feng Yun 1C
Long March 4B | Feng Yun 1C

Agency: N/A

Status: Launch Successful

Launch date: May 10, 1999, 1:33 a.m. UTC

Rocket: Long March 4B

Launch pad: Launch Complex 7

Location: Taiyuan Satellite Launch Center, People's Republic of China

...

Latest news about this satellite

There are no fresh news available about this satellite. Check back as we update our databases every day.


Newsletter sign-up

Weekly statistics, charts and insights to help you stay on top of the space industry.